Location: Unspecified
(33.9239°N, 118.0544°W)
Time: 13:41:39
(UTC-07:00)

Resurs 1-4 Rocket - Visible Passes

Search period start: 23 May 2017 00:00
Search period end: 02 June 2017 00:00
Orbit: 800 x 814 km, 98.5° (Epoch: 22 May)

Date Brightness Start Highest point End Pass type
(mag) Time Alt. Az. Time Alt. Az. Time Alt. Az.
23 May 3.6 02:22:58 10° NE 02:27:26 27° E 02:27:46 27° ESE visible
23 May 3.1 04:02:33 10° N 04:07:11 31° WNW 04:08:51 26° WSW visible
24 May 4.3 01:59:40 10° ENE 02:02:41 15° E 02:02:57 15° E visible
24 May 2.3 03:37:36 10° N 03:42:46 54° WNW 03:44:02 43° WSW visible
25 May 2.0 03:12:56 10° NNE 03:18:16 87° ESE 03:19:13 62° S visible
26 May 2.6 02:48:33 10° NNE 02:53:42 49° E 02:54:22 47° SE visible
26 May 3.8 04:29:38 10° NNW 04:33:05 18° WNW 04:35:28 13° W visible
27 May 3.5 02:24:30 10° NE 02:29:02 28° E 02:29:33 28° ESE visible
27 May 3.1 04:04:12 10° N 04:08:46 30° WNW 04:10:39 24° WSW visible
28 May 4.2 02:01:07 10° NE 02:04:18 16° E 02:04:44 16° E visible
28 May 2.4 03:39:14 10° N 03:44:22 51° WNW 03:45:49 40° WSW visible
29 May 2.0 03:14:32 10° NNE 03:19:53 89° WNW 03:20:59 58° SSW visible
30 May 2.6 02:50:07 10° NNE 02:55:19 52° E 02:56:09 47° SE visible
30 May 3.8 04:31:20 10° NNW 04:34:39 17° WNW 04:37:14 12° W visible
31 May 3.4 02:26:03 10° NE 02:30:39 29° E 02:31:19 29° ESE visible
31 May 3.2 04:05:51 10° NNW 04:10:21 29° WNW 04:12:23 22° WSW visible
01 Jun 4.2 02:02:35 10° NE 02:05:56 17° E 02:06:29 16° E visible
01 Jun 2.5 03:40:51 10° N 03:45:58 49° WNW 03:47:33 37° WSW visible
